Location: Rounton
(54.4000°N, 1.3500°W)
Time: 05:48:34
(UTC+00:00)

A-11 Canister half - Pass Details

Date: 01 December 2021
Orbit: 1516 x 1684 km, 47.2° (Epoch: 21 January)

Event Time Altitude Azimuth Distance (km) Brightness Sun altitude
Rises 08:21:49 0° 226° (SW) 4,790 11.6 1.2°
Reaches altitude 10° 08:25:04 10° 220° (SW) 3,830 11.1 1.6°
Maximum altitude 08:34:04 43° 153° (SSE) 2,178 10.7 2.5°
Drops below altitude 10° 08:43:20 10° 87° (E) 3,939 11.8 3.5°
Sets 08:46:43 0° 81° (E) 4,937 12.2 3.8°
